User: anonymous   Login
Location: Narrabri
(30.3170°S, 149.7830°E)
Time: 03:00:37
(UTC+10:00)
Language:

VELOX 1 - Orbit

View from above orbital plane
View from above orbital plane
View from above satellite
View from above satellite

Ground track
Ground track

The orbit data is extracted from the following two-line orbital elements,

1 40057U 14034E   18231.22535201  .00000241  00000-0  41453-4 0  9991
2 40057  98.2099 343.3825 0012098 122.5830 237.6564 14.77469068222959
Epoch (UTC): 19 August 2018 05:24:30
Eccentricity: 0.0012098
inclination: 98.2099°
perigee height: 629 km
apogee height: 646 km
right ascension of ascending node: 343.3825°
argument of perigee: 122.5830°
revolutions per day: 14.77469068
mean anomaly at epoch: 237.6564°
orbit number at epoch: 22295

The dashed part of the orbit path shows where the satellite is in the earth's shadow,  

DLR